Palos Park, Illinois, United States (60464)
Lat: 41.67N, Lon: 87.83W
Wx Zone: ILZ014
Local Info
Past Weather Observations for Wednesday, September 17, 2014

NOTE: This archive is for the closest National Weather Service station to Palos Park. Information may differ from the station used for current weather conditions.

Click here for Long-term Archive

Time Weather Temperature Dewpoint Humidity Pressure Winds Precip Visibility
23:51
Clear
59°F / 15°C 52°F / 11°C 77% 30.04 in
(1017 mb)
Calm - 10SM
22:51
Clear
61°F / 16°C 52°F / 11°C 72% 30.04 in
(1017 mb)
Calm - 10SM
21:51
Clear
63°F / 17°C 52°F / 11°C 68% 30.04 in
(1017 mb)
Calm - 10SM
20:51
Clear
63°F / 17°C 52°F / 11°C 68% 30.04 in
(1017 mb)
Calm - 10SM
19:51
Clear
63°F / 17°C 50°F / 10°C 64% 30.01 in
(1016 mb)
ESE 3.5 mph
(ESE 6 kph)
- 10SM
18:51
Clear
64°F / 18°C 48°F / 9°C 56% 30.01 in
(1016 mb)
E 5.8 mph
(E 9 kph)
- 10SM
17:51
Clear
64°F / 18°C 48°F / 9°C 56% 29.98 in
(1015 mb)
E 10.4 mph
(E 17 kph)
- 10SM
16:51
Clear
66°F / 19°C 46°F / 8°C 49% 29.98 in
(1015 mb)
E 10.4 mph
(E 17 kph)
- 10SM
15:51
Partly Cloudy
70°F / 21°C 48°F / 9°C 46% 29.98 in
(1015 mb)
ESE 8.1 mph
(ESE 13 kph)
- 10SM
14:51
Partly Cloudy
72°F / 22°C 45°F / 7°C 38% 29.98 in
(1015 mb)
Variable 6.9 mph
(Variable 11 kph)
- 10SM
13:51
Partly Cloudy
70°F / 21°C 46°F / 8°C 43% 30.01 in
(1016 mb)
NW 6.9 mph
(NW 11 kph)
- 10SM
12:51
Mostly Cloudy
70°F / 21°C 46°F / 8°C 43% 30.01 in
(1016 mb)
SW 9.2 mph
(SW 15 kph)
- 10SM
11:51
Mostly Cloudy
66°F / 19°C 46°F / 8°C 49% 30.04 in
(1017 mb)
SW 9.2 mph
(SW 15 kph)
- 10SM
10:51
Partly Cloudy
68°F / 20°C 46°F / 8°C 46% 30.04 in
(1017 mb)
SW 5.8 mph
(SW 9 kph)
- 10SM
09:51
Partly Cloudy
64°F / 18°C 45°F / 7°C 49% 30.04 in
(1017 mb)
Variable 4.6 mph
(Variable 7 kph)
- 10SM
08:51
Partly Cloudy
64°F / 18°C 46°F / 8°C 52% 30.04 in
(1017 mb)
Calm - 10SM
07:51
Partly Cloudy
59°F / 15°C 48°F / 9°C 68% 30.04 in
(1017 mb)
Calm - 10SM
06:51
Mostly Cloudy
54°F / 12°C 46°F / 8°C 77% 30.06 in
(1018 mb)
Calm - 10SM
05:51
Partly Cloudy
50°F / 10°C 45°F / 7°C 82% 30.06 in
(1018 mb)
SW 4.6 mph
(SW 7 kph)
- 10SM
04:51
Mostly Cloudy
52°F / 11°C 45°F / 7°C 77% 30.06 in
(1018 mb)
SW 3.5 mph
(SW 6 kph)
- 10SM
03:51
Partly Cloudy
52°F / 11°C 46°F / 8°C 82% 30.06 in
(1018 mb)
S 3.5 mph
(S 6 kph)
- 10SM
02:51
Partly Cloudy
52°F / 11°C 46°F / 8°C 82% 30.06 in
(1018 mb)
Calm - 10SM
01:51
Clear
54°F / 12°C 48°F / 9°C 82% 30.06 in
(1018 mb)
S 3.5 mph
(S 6 kph)
- 10SM
00:51
Clear
55°F / 13°C 48°F / 9°C 77% 30.06 in
(1018 mb)
Calm - 10SM
Time Weather Temperature Dewpoint Humidity Pressure Winds Precip Visibility


Weather for websites

WeatherForYou.com, LLC is not responsible for any damages or problems caused by this service. Current weather conditions are obtained from the closest station including government and personal stations which may have varying degrees of accuracy. Weather forecasts are derived from the NOAA NDFD. Like all things, this site belongs to Jesus Christ... He just trusts me to maintain it. If you have any questions or comments email webmaster@weatherforyou.com

Copyright © 2014, WeatherForYou.com LLC. All rights reserved.